Wind_Speed
22 23 23 22 22 21 20 18 17 17 17 18 18 19 19 19 19 19 19 19 19 18 18 17 17 16 16 15 14 13 12 11 10 9 8 8 8 8 9 10 11 12 12
25 26 25 24 23 22 20 20 19 19 19 19 19 20 20 20 19 20 20 20 20 19 19 19 19 18 17 16 15 15 14 13 12 11 10 10 10 10 11 11 12 13 13
27 28 28 25 24 23 22 21 21 22 22 21 20 20 20 20 20 21 21 21 21 21 20 20 20 20 19 18 18 17 17 16 14 13 13 13 12 12 12 13 13 13 14
30 31 30 29 26 25 25 24 24 25 24 23 22 22 22 22 22 23 22 22 22 22 22 22 22 22 21 20 20 20 19 18 17 17 16 16 15 15 14 15 15 15 15
33 33 33 31 29 29 28 26 26 26 26 25 24 23 23 23 23 23 23 23 23 23 23 24 24 24 23 23 23 22 22 21 21 20 19 19 19 19 18 17 17 16 16
31 35 35 35 34 32 31 29 26 26 26 26 25 24 24 23 24 24 24 24 24 24 25 25 26 26 26 26 25 25 25 25 24 23 23 22 22 21 22 21 19 19 18
26 28 31 36 36 34 32 28 26 25 25 26 25 25 25 25 25 26 26 25 25 25 26 26 27 27 28 28 28 28 28 28 27 27 26 26 25 25 24 24 22 23 20
25 26 29 34 35 33 29 26 25 24 25 25 26 26 25 25 25 26 26 26 26 27 27 27 28 28 29 30 31 31 31 31 31 30 30 30 29 28 27 27 25 26 24
23 24 27 31 30 28 27 25 24 23 24 24 24 24 24 24 25 26 27 27 28 27 27 28 29 29 30 31 32 33 34 34 34 34 33 34 32 32 30 29 29 28 28
20 22 24 25 26 25 24 23 22 21 22 22 22 22 22 23 23 24 25 26 27 28 28 29 30 31 32 32 33 34 35 35 36 36 36 37 36 35 34 32 32 31 31
21 22 23 24 24 23 22 22 21 20 19 19 19 19 19 20 20 21 23 25 26 27 28 30 31 32 34 35 36 36 37 37 38 38 39 39 38 38 36 35 34 33 33
22 22 22 22 22 22 22 21 20 19 18 16 15 14 14 15 16 18 20 22 24 26 28 30 31 33 35 36 37 38 38 38 40 39 41 41 40 40 39 37 36 35 34
22 22 22 22 22 21 21 19 18 17 16 16 16 18 19 22 24 25 27 28 29 30 31 32 33 34 35 37 38 39 40 40 41 41 41 42 41 41 40 39 38 36 35
22 22 21 21 21 21 21 20 20 20 20 22 25 28 31 32 33 33 34 34 35 35 36 36 36 36 37 37 38 39 41 42 42 43 42 42 41 41 41 40 39 38 38
22 22 21 22 23 23 23 23 24 26 29 30 29 29 28 28 28 30 31 33 34 34 35 35 36 36 39 40 41 41 41 42 43 44 44 44 42 42 41 41 40 38 39
24 24 25 26 27 27 27 28 28 26 25 24 25 26 28 29 29 30 30 31 32 33 33 34 35 36 37 37 39 42 44 45 45 46 44 45 43 43 42 41 41 40 41
26 26 27 28 29 29 28 27 25 25 26 27 28 28 29 30 30 31 32 33 35 37 38 38 39 40 41 42 42 43 45 44 44 44 44 45 43 43 43 44 43 41 40
29 29 29 30 30 28 27 26 27 28 29 30 31 32 33 34 35 36 37 38 39 40 41 42 42 42 41 40 40 40 41 42 41 39 40 39 39 40 39 38 38 38 38
31 31 31 30 29 28 28 29 30 31 33 35 36 36 37 38 39 39 39 40 42 43 45 46 46 46 44 43 42 40 40 38 38 41 43 42 43 42 41 40 38 37 37
34 32 30 29 30 29 30 31 33 34 36 37 38 39 40 40 41 41 41 40 39 40 41 41 43 45 47 48 45 42 41 41 41 42 45 46 45 42 39 38 37 37 38
29 28 28 28 29 30 31 32 34 35 36 38 39 40 40 40 38 36 35 36 36 37 37 38 38 40 41 42 43 44 45 45 42 42 43 45 43 39 38 38 38 38 38
25 25 26 28 29 31 32 33 34 36 37 38 39 38 36 35 35 35 35 35 36 37 37 37 37 38 39 40 41 41 41 42 43 41 41 42 40 39 38 38 39 39 40
23 24 26 28 30 31 33 34 36 37 39 38 36 35 34 34 34 34 34 34 35 35 35 35 36 35 36 37 39 41 39 38 40 42 39 39 39 39 39 39 41 39 39
25 26 28 29 31 32 34 36 38 40 37 35 34 34 34 34 33 33 34 35 35 35 34 34 34 34 34 35 35 37 37 37 38 42 41 39 39 38 39 37 38 40 40
29 31 32 32 34 35 37 37 36 35 35 35 35 35 35 35 34 34 35 36 36 36 35 35 35 34 34 34 34 35 35 36 36 39 38 37 36 34 35 36 37 40 38
32 32 34 34 36 37 36 36 35 34 35 36 36 36 35 35 35 35 34 34 35 36 36 36 38 37 35 35 35 33 33 33 33 34 36 33 32 30 31 33 34 40 39
Wind_Direction
218 220 223 226 229 233 238 238 235 233 231 230 228 227 226 225 224 223 222 220 218 217 216 215 216 217 216 214 214 216 218 217 221 228 237 248 261 272 280 286 291 295 299
223 227 228 231 233 235 237 236 234 234 234 233 233 233 230 228 228 227 225 223 221 220 218 218 219 220 220 220 223 224 226 229 232 238 247 255 264 272 279 285 290 293 296
231 231 232 234 234 235 238 237 233 234 235 235 234 234 232 230 230 230 229 226 224 224 224 224 224 225 226 227 228 231 235 238 242 246 253 258 263 269 276 282 287 291 294
236 234 233 232 231 232 234 234 233 234 236 236 235 235 234 233 231 231 231 230 228 227 227 227 228 229 230 233 236 239 243 246 249 253 258 264 269 273 276 282 287 291 293
238 236 232 231 229 229 232 235 236 237 238 237 236 237 236 236 236 236 235 234 232 231 230 230 231 232 234 235 238 241 243 246 249 254 260 265 271 275 278 278 283 287 290
236 233 230 228 229 230 232 236 239 239 240 240 240 239 238 238 239 238 237 237 236 235 234 234 235 235 237 239 241 243 245 249 252 255 258 263 267 271 276 279 281 284 287
230 228 229 229 228 230 232 237 240 241 241 241 241 241 240 240 240 240 240 241 241 239 238 238 239 239 240 241 242 244 247 249 252 255 258 261 264 268 272 276 280 281 282
230 229 227 224 224 227 231 235 238 239 239 240 241 242 243 243 243 243 244 243 243 243 243 245 245 246 246 246 247 248 249 250 252 254 257 260 263 265 268 273 276 278 279
224 221 220 218 220 225 229 234 239 239 240 241 244 246 248 249 249 248 248 248 248 247 247 247 248 249 250 251 251 252 253 253 254 256 257 259 262 263 265 267 270 273 276
211 207 208 212 217 222 228 234 236 236 237 240 243 246 248 250 251 252 252 252 254 254 254 253 253 254 254 254 254 255 255 256 257 257 258 260 261 262 264 266 268 270 273
206 206 208 211 216 221 224 226 228 231 234 237 241 243 245 247 250 251 252 254 256 258 258 258 258 258 258 258 259 259 259 258 259 259 260 261 262 263 264 265 266 268 270
207 209 211 213 217 219 222 225 227 228 227 228 231 236 242 248 252 253 255 257 259 261 262 262 263 262 262 262 262 262 262 261 262 261 262 262 262 263 264 265 266 267 269
209 209 212 216 219 219 216 211 208 210 218 229 240 249 256 259 261 262 262 263 263 264 264 265 265 265 264 264 263 263 262 261 261 261 261 262 262 263 264 264 265 265 265
208 209 209 208 207 205 205 209 218 228 240 250 258 263 264 264 264 265 265 265 266 266 266 266 267 268 268 267 267 266 266 265 263 262 262 262 262 262 262 261 261 261 267
206 206 207 209 211 214 219 229 240 249 257 259 258 257 258 259 260 261 263 265 266 266 267 268 268 270 270 271 270 268 267 266 265 264 262 260 260 260 261 261 260 259 267
211 215 217 219 223 230 238 248 255 255 255 255 256 257 260 262 263 263 264 264 265 265 266 269 272 274 275 275 274 271 268 266 265 264 262 261 261 260 260 260 259 260 266
225 227 230 234 238 244 250 252 254 258 260 261 263 265 267 267 268 268 268 268 269 270 272 274 275 276 276 277 276 275 273 268 265 264 264 263 261 260 261 261 261 263 263
230 235 239 240 244 247 250 257 261 263 264 266 267 269 269 269 270 271 272 273 274 275 276 277 278 279 279 276 274 272 270 268 265 262 263 263 261 260 260 256 258 258 258
236 242 240 241 244 249 255 257 259 262 264 266 267 268 268 268 269 270 271 273 274 275 277 278 278 278 276 274 276 274 273 270 263 259 256 254 254 254 255 255 255 255 257
237 236 236 241 247 249 253 257 260 263 266 268 269 270 270 271 272 273 274 275 276 276 277 277 276 276 275 272 272 272 270 269 265 258 257 256 255 256 255 254 254 255 255
226 233 238 242 249 254 258 261 265 266 268 269 270 272 273 273 273 274 275 276 277 278 278 278 277 276 276 275 270 270 269 268 265 260 256 257 256 253 253 255 256 256 254
232 239 247 253 258 262 264 265 266 267 269 272 275 274 272 271 272 273 275 276 277 277 277 277 278 278 276 273 271 270 269 267 264 260 257 256 254 255 255 254 254 253 253
250 258 262 263 264 264 266 267 269 272 277 279 275 271 270 272 273 276 277 277 278 279 279 279 280 281 280 276 270 267 266 263 262 261 257 257 257 256 254 251 253 252 250
267 268 266 268 269 270 271 271 274 277 277 274 271 270 271 271 273 275 277 277 278 280 281 281 282 282 282 280 275 268 265 260 256 258 258 257 254 252 251 248 247 248 248
267 267 265 267 269 271 273 274 275 274 272 270 269 269 270 271 272 274 276 276 277 278 279 278 279 282 281 281 276 271 267 261 255 255 253 250 250 250 249 247 243 246 243
261 260 264 267 270 273 274 274 273 272 272 271 270 271 272 273 274 275 275 276 276 276 277 278 277 275 279 279 273 269 265 261 250 247 249 249 250 252 250 248 245 234 238
Height
3112 3114 3115 3117 3118 3120 3122 3124 3127 3128 3129 3131 3133 3134 3136 3139 3141 3144 3146 3148 3150 3152 3154 3156 3157 3159 3161 3162 3163 3165 3166 3167 3168 3168 3169 3170 3170 3171 3171 3171 3170 3170 3170
3108 3109 3111 3113 3115 3117 3119 3121 3123 3125 3126 3128 3130 3132 3134 3136 3138 3141 3143 3145 3147 3150 3152 3153 3155 3157 3159 3160 3162 3163 3164 3165 3166 3167 3167 3168 3169 3169 3169 3168 3168 3168 3167
3103 3105 3107 3109 3112 3113 3115 3118 3120 3121 3122 3125 3127 3129 3131 3133 3135 3137 3140 3142 3144 3147 3149 3151 3153 3155 3156 3158 3159 3161 3162 3163 3164 3164 3165 3165 3166 3166 3166 3166 3166 3166 3165
3097 3100 3102 3104 3107 3109 3111 3113 3115 3116 3118 3121 3123 3125 3127 3129 3131 3134 3136 3138 3141 3144 3146 3148 3150 3152 3154 3156 3157 3158 3160 3161 3161 3162 3162 3163 3163 3163 3164 3164 3164 3163 3163
3091 3093 3097 3100 3102 3104 3106 3108 3110 3112 3114 3116 3119 3121 3123 3126 3128 3130 3132 3135 3137 3140 3142 3144 3146 3148 3150 3152 3153 3155 3156 3157 3158 3159 3159 3159 3160 3160 3160 3161 3161 3160 3160
3084 3086 3090 3093 3095 3098 3101 3103 3106 3108 3110 3112 3114 3117 3119 3122 3124 3126 3128 3130 3133 3135 3137 3140 3142 3144 3146 3148 3149 3151 3152 3153 3154 3155 3155 3156 3156 3156 3156 3156 3157 3157 3157
3077 3080 3083 3086 3089 3093 3096 3099 3102 3104 3106 3108 3110 3112 3114 3117 3119 3121 3123 3126 3128 3130 3132 3134 3137 3139 3141 3142 3144 3146 3147 3148 3149 3150 3151 3151 3152 3152 3152 3152 3153 3152 3153
3072 3075 3077 3080 3084 3088 3092 3095 3097 3100 3102 3103 3105 3107 3110 3112 3114 3117 3119 3121 3123 3125 3127 3129 3131 3133 3135 3137 3138 3140 3141 3142 3144 3144 3145 3146 3147 3147 3147 3147 3148 3147 3148
3066 3069 3072 3076 3080 3084 3087 3090 3093 3095 3097 3099 3101 3103 3105 3108 3110 3112 3114 3115 3117 3119 3122 3123 3125 3127 3129 3131 3132 3134 3135 3136 3137 3138 3139 3139 3140 3141 3142 3142 3142 3142 3141
3062 3065 3068 3072 3076 3080 3083 3085 3088 3090 3092 3094 3097 3099 3101 3103 3105 3107 3109 3111 3112 3114 3116 3118 3119 3121 3123 3124 3125 3127 3128 3129 3130 3131 3132 3132 3134 3134 3135 3135 3136 3136 3135
3059 3062 3066 3069 3073 3076 3078 3081 3083 3085 3087 3090 3092 3094 3096 3098 3100 3102 3103 3105 3107 3108 3110 3112 3113 3115 3116 3117 3118 3119 3121 3122 3122 3123 3124 3125 3126 3126 3127 3128 3129 3129 3129
3055 3059 3062 3065 3068 3071 3074 3077 3079 3081 3083 3086 3088 3090 3092 3094 3095 3097 3098 3099 3100 3102 3103 3104 3106 3107 3108 3109 3110 3111 3112 3114 3114 3115 3115 3116 3118 3118 3119 3120 3121 3121 3121
3052 3055 3058 3061 3064 3067 3070 3073 3075 3078 3081 3083 3084 3086 3088 3089 3090 3091 3092 3093 3094 3095 3096 3097 3098 3098 3099 3100 3101 3102 3102 3104 3104 3105 3106 3107 3108 3109 3110 3111 3112 3113 3113
3048 3051 3054 3056 3060 3063 3066 3069 3072 3074 3076 3078 3079 3080 3081 3082 3083 3084 3084 3085 3086 3086 3087 3088 3089 3090 3090 3091 3092 3093 3093 3094 3094 3095 3096 3097 3099 3100 3101 3101 3102 3103 3104
3044 3047 3050 3053 3056 3059 3062 3064 3066 3068 3070 3071 3072 3072 3073 3075 3076 3076 3077 3077 3077 3078 3078 3079 3079 3080 3081 3082 3082 3083 3083 3083 3084 3084 3086 3086 3088 3089 3091 3091 3092 3093 3094
3040 3043 3046 3048 3051 3054 3057 3058 3060 3061 3062 3063 3064 3065 3066 3067 3067 3068 3069 3069 3069 3070 3070 3071 3071 3072 3071 3072 3071 3071 3071 3072 3072 3073 3075 3076 3078 3078 3079 3080 3082 3083 3084
3035 3038 3041 3043 3045 3048 3049 3051 3052 3053 3054 3055 3056 3057 3058 3058 3059 3059 3060 3060 3060 3060 3061 3061 3061 3061 3061 3061 3060 3060 3059 3060 3060 3061 3063 3065 3067 3067 3069 3070 3071 3072 3073
3030 3032 3035 3037 3039 3040 3042 3043 3044 3045 3046 3047 3048 3049 3049 3050 3050 3050 3050 3050 3050 3050 3050 3050 3050 3050 3050 3050 3049 3049 3048 3048 3049 3050 3052 3054 3055 3056 3057 3057 3059 3061 3062
3024 3026 3027 3030 3031 3033 3035 3036 3037 3038 3038 3038 3039 3040 3040 3040 3040 3041 3041 3040 3040 3040 3039 3038 3038 3038 3039 3038 3038 3037 3036 3037 3038 3039 3041 3041 3042 3044 3045 3046 3048 3049 3051
3016 3018 3021 3023 3025 3026 3027 3028 3028 3029 3029 3029 3030 3030 3029 3030 3030 3030 3030 3029 3028 3028 3027 3026 3026 3025 3025 3026 3026 3025 3024 3026 3027 3028 3029 3030 3032 3033 3034 3035 3037 3039 3041
3010 3012 3014 3016 3018 3018 3019 3019 3019 3020 3020 3020 3020 3020 3019 3019 3018 3018 3018 3018 3017 3017 3016 3016 3015 3014 3013 3013 3013 3013 3011 3014 3015 3016 3017 3019 3021 3022 3024 3025 3027 3030 3031
3004 3006 3008 3009 3009 3010 3010 3010 3010 3010 3010 3010 3010 3009 3009 3008 3008 3008 3008 3007 3006 3006 3005 3004 3003 3002 3001 3001 3001 3001 3000 3001 3001 3004 3006 3008 3010 3011 3014 3015 3016 3019 3020
2997 2998 2999 2999 3000 3000 3000 3000 3000 3000 3000 2999 2999 2999 2999 2998 2997 2997 2996 2996 2995 2994 2994 2993 2992 2991 2990 2990 2989 2989 2989 2990 2989 2991 2995 2997 2999 3001 3002 3005 3005 3008 3009
2988 2989 2989 2990 2990 2990 2990 2990 2990 2990 2989 2989 2989 2989 2989 2988 2987 2987 2986 2986 2985 2984 2983 2982 2981 2980 2979 2978 2979 2978 2978 2978 2979 2980 2982 2985 2987 2990 2991 2994 2995 2997 2999
2979 2980 2980 2981 2981 2981 2980 2980 2980 2979 2979 2979 2979 2978 2978 2978 2977 2977 2976 2975 2975 2974 2972 2972 2971 2970 2969 2969 2968 2968 2968 2968 2969 2968 2970 2973 2975 2979 2980 2983 2986 2987 2990
2971 2971 2971 2971 2971 2970 2970 2969 2969 2969 2969 2969 2968 2968 2967 2966 2966 2965 2965 2965 2964 2963 2962 2961 2960 2960 2960 2959 2958 2958 2958 2959 2959 2957 2959 2963 2966 2969 2971 2974 2978 2980 2982